Location: La B�doule
(43.2468°N, 5.5934°E)
Time: 22:46:10
(UTC+00:00)

Cosmos 1400 Rocket - Pass Details

Date: 07 June 2020
Orbit: 522 x 568 km, 81.2° (Epoch: 11 July)

Event Time Altitude Azimuth Distance (km) Brightness Sun altitude
Rises 01:38:27 0° 338° (NNW) 2,778 7.0 -18.3°
Reaches altitude 10° 01:40:52 10° 327° (NNW) 1,875 5.9 -18.0°
Maximum altitude 01:44:24 28° 268° (W) 1,087 4.0 -17.7°
Enters shadow 01:44:47 27° 258° (WSW) 1,099 4.0 -17.7°
